If you wish to contribute or participate in the discussions about articles you are invited to join SKYbrary as a registered user

 Actions

Kryvyi Rih International Airport

From SKYbrary Wiki

UKDR /
Revision as of 21:43, 25 June 2020 by Admin (talk | contribs) (Text replacement - "===test===" to "")
(diff) ← Older revision | Latest revision (diff) | Newer revision → (diff)
Airport
ICAO: UKDR
Summary
Name Kryvyi Rih International Airport
Region Europe
Territory Ukraine UA.gif
Location Kryvyi Rih
Serving
Coordinates 48° 2' 39.13" N, 33° 12' 28.93" E
Runways
Designator Length Width Surface ROPS
18/36 2500 m8,202.1 ft <br /> 42 m137.795 ft <br /> CON /


METAR
Observation UKDR 211200Z 21012MPS CAVOK 18/04 Q1015 R18/09//70 TEMPO 21010G15MPS
Station Krivyy Rih / Dnipropetrovs'k
Date/Time 21 October 2021 12:00:00
Wind direction 210°
Wind speed kts
Lowest cloud amount clouds and visibility OK
Temperature 18°C
Dew point 4°C
Humidity 39%
QNH 1015 hPa
Weather condition n/a

Kryvyi Rih/Lozovatka International Airport (IATA: KWG) is an airport near Kryvyi Rih, Ukraine. It is located 4.2 km west of the city of Lozovatka, and 17.5 km northwest of the city of Kryvyi Rih.